Home > Weather > Al Jizah > Past weeks

Flag for Egypt Past Weather in Al Jizah, Egypt — Yesterday and Last 2 Weeks

Now
91 °F

Sunny.


Feels Like: 93 °F
Forecast: 75 / 99 °F
Wind: 10 mph from Northwest

Location: Cairo Airport

Current Time: Jul 29, 2016 at 6:13:43 PM

Latest Report: Jul 29, 2016 at 5:30 PM


Visibility: 10 mi

Pressure: 29.68 "Hg

Humidity: 41%

Dew Point: 64 °F

Location of Al JizahLocation

Past Weather in Al Jizah — Graph

°F

Al Jizah Temperature Yesterday

Maximum temperature yesterday: 93 °F (at 2:30 PM)
Minimum temperature yesterday: 77 °F (at 1:00 AM)
Average temperature yesterday: 84 °F

High & Low Weather Summary for the Past Weeks

 TemperatureHumidityPressure
High99 °F (Jul 21, 3:00 PM)100% (Jul 19, 10:00 PM)29.92 "Hg (Jul 19, 10:00 PM)
Low75 °F (Jul 19, 4:00 AM)18% (Jul 15, 1:00 PM)29.65 "Hg (Jul 19, 3:00 PM)
Average86 °F55%29.78 "Hg
* Reported Jul 14 5:00 PM — Jul 29 5:00 PM, Al Jizah, Weather by CustomWeather, © 2016

Note: Actual official high and low records may vary slightly from our data, if they occured in-between our weather recording intervals... More about our weather records

Advertising

Al Jizah Weather History for the Previous 24 Hours

Scroll right to see more
 ConditionsComfort  
Time TempWeatherWind HumidityBarometerVisibility
5:00 PM
Fri, Jul 29
93 °FSunny.12 mph36%29.68 "Hg10 mi
4:30 PM93 °FSunny.9 mph39%29.68 "Hg10 mi
4:00 PM93 °FSunny.12 mph39%29.68 "Hg10 mi
3:30 PM93 °FSunny.10 mph41%29.68 "Hg10 mi
3:00 PM93 °FSunny.9 mph41%29.68 "Hg10 mi
2:30 PM93 °FSunny.9 mph39%29.71 "Hg10 mi
2:00 PM91 °FSunny.9 mph38%29.71 "Hg10 mi
1:30 PM91 °FSunny.12 mph41%29.71 "Hg10 mi
1:00 PM91 °FSunny.12 mph36%29.71 "Hg10 mi
12:30 PM90 °FSunny.8 mph41%29.71 "Hg10 mi
12:00 PM90 °FSunny.8 mph41%29.74 "Hg10 mi
11:30 AM88 °FSunny.8 mph43%29.74 "Hg10 mi
11:00 AM86 °FSunny.8 mph49%29.74 "Hg10 mi
10:30 AM84 °FSunny.12 mph55%29.74 "Hg10 mi
10:00 AM84 °FSunny.12 mph55%29.74 "Hg10 mi
9:30 AM84 °FSunny.12 mph55%29.77 "Hg10 mi
9:00 AM82 °FSunny.12 mph58%29.77 "Hg10 mi
8:30 AM81 °FPartly sunny.9 mph66%29.77 "Hg4 mi
8:00 AM81 °FPartly sunny.9 mph66%29.77 "Hg4 mi
7:30 AM81 °FPartly sunny.12 mph66%29.77 "Hg4 mi
7:00 AM79 °FPartly sunny.12 mph70%29.77 "Hg4 mi
6:30 AM79 °FPartly sunny.8 mph70%29.77 "Hg4 mi
6:00 AM77 °FFog.9 mph79%29.77 "Hg2 mi
5:30 AM77 °FFog.8 mph83%29.74 "Hg1 mi
5:00 AM77 °FClear.9 mph83%29.74 "Hg4 mi
4:30 AM77 °FClear.10 mph83%29.74 "Hg10 mi
4:00 AM79 °FClear.10 mph74%29.74 "Hg10 mi
3:30 AM79 °FClear.12 mph74%29.74 "Hg10 mi
3:00 AM79 °FClear.12 mph74%29.74 "Hg10 mi
2:00 AM79 °FClear.9 mph74%29.74 "Hg10 mi
1:30 AM79 °FClear.10 mph74%29.74 "Hg4 mi
1:00 AM79 °FClear.10 mph84%29.74 "Hg4 mi
12:30 AM79 °FClear.9 mph84%29.74 "Hg4 mi
12:00 AM79 °FClear.10 mph84%29.74 "Hg4 mi
11:30 PM
Thu, Jul 28
81 °FClear.12 mph74%29.77 "Hg4 mi
11:00 PM81 °FClear.13 mph74%29.77 "Hg10 mi
10:00 PM82 °FClear.12 mph70%29.77 "Hg10 mi
9:30 PM84 °FClear.12 mph62%29.77 "Hg10 mi
9:00 PM84 °FClear.10 mph62%29.77 "Hg10 mi
8:30 PM86 °FClear.12 mph59%29.74 "Hg10 mi
8:00 PM86 °FClear.13 mph59%29.74 "Hg10 mi
7:30 PM86 °FClear.13 mph59%29.74 "Hg10 mi
7:00 PM88 °FClear.15 mph55%29.74 "Hg10 mi
6:30 PM88 °FSunny.13 mph55%29.74 "Hg10 mi
6:00 PM90 °FSunny.13 mph52%29.71 "Hg10 mi
Weather by CustomWeather, © 2016

See weather overviewHow to use our weather pages